Location: *
(2.5500°S, 65.9667°W)
Time: 17:41:03
(UTC+00:00)

SRMSAT - Pass Details

Date: 05 July 2022
Orbit: 848 x 865 km, 20.0° (Epoch: 18 August)

Event Time Altitude Azimuth Distance (km) Brightness Sun altitude
Exits shadow 07:50:24 22° 112° (ESE) 1,746 ? -37.1°
Drops below altitude 10° 07:52:25 10° 111° (ESE) 2,462 ? -36.7°
Sets 07:54:59 0° 111° (ESE) 3,400 ? -36.1°
